Regional Weather Roundup
Issued by NWS

Home | Current Version | Previous Version | Graphics & Text | Print | Product List | Glossary On
Versions: 1 2 3 4 5 6 7 8 9 10 11 12 13 14 15 16 17 18 19 20 21 22 23 24 25 26 27 28 29 30 31 32 33 34 35 36 37 38 39 40 41 42 43 44 45 46 47 48 49 50
000
ASUS43 KOAX 311802
RWRNE

WEATHER ROUNDUP FOR NEBRASKA
NATIONAL WEATHER SERVICE OMAHA NE
100 PM CDT MON AUG 31 2015

NOTES: SATELLITE DATA IS BEING USED TO AUGMENT CLOUD COVER ABOVE
       12000 FEET.
       "FAIR" INDICATES FEW OR NO CLOUDS BELOW 12,000 FEET WITH NO
       SIGNIFICANT WEATHER AND/OR OBSTRUCTIONS TO VISIBILITY.

  * THESE STATIONS DO NOT REPORT WEATHER SUCH AS RAIN...SNOW OR FOG.

NEZ001>004-019>022-054>056-311900-
NEBRASKA PANHANDLE

CITY           SKY/WX    TMP DP  RH WIND       PRES   REMARKS
SCOTTSBLUFF    PTSUNNY   85  49  28 NW6       30.02F
6HR MIN TEMP:  69; 6HR MAX TEMP:  85; 6HR PCP: TRACE;

ALLIANCE       CLOUDY    81  51  35 N8        30.02S
6HR MIN TEMP:  60; 6HR MAX TEMP:  84;

CHADRON        CLOUDY    75  54  47 N14       30.02R HAZE
6HR MIN TEMP:  72; 6HR MAX TEMP:  79; 6HR PCP: TRACE;

KIMBALL        CLOUDY    78  49  36 CALM      30.09S
SIDNEY         CLOUDY    81  50  33 NE10      30.06S
6HR MIN TEMP:  59; 6HR MAX TEMP:  82;

$$

NEZ057>060-069>072-079>082-311900-
SOUTHWEST NEBRASKA

CITY           SKY/WX    TMP DP  RH WIND       PRES   REMARKS
NORTH PLATTE   SUNNY     83  57  41 CALM      29.94F
6HR MIN TEMP:  54; 6HR MAX TEMP:  83;

IMPERIAL       MOSUNNY   90  52  27 NE14      29.96F
6HR MIN TEMP:  54; 6HR MAX TEMP:  90;

LEXINGTON      SUNNY     86  61  42 S7        29.93S
MCCOOK         SUNNY     87  58  37 SE10      29.92F
6HR MIN TEMP:  58; 6HR MAX TEMP:  87;

$$

NEZ005>010-023>029-035>040-094-311900-
NORTH CENTRAL NEBRASKA

CITY           SKY/WX    TMP DP  RH WIND       PRES   REMARKS
VALENTINE      SUNNY     85  58  39 NW16G24   29.93R
6HR MIN TEMP:  63; 6HR MAX TEMP:  88;

AINSWORTH      SUNNY     87  54  32 W3        29.91F
BROKEN BOW     SUNNY     85  64  49 S8        29.94F
6HR MIN TEMP:  59; 6HR MAX TEMP:  85;

ORD            SUNNY     85  62  46 S8        29.92F
6HR MIN TEMP:  62; 6HR MAX TEMP:  85;

$$

NEZ041-046>049-061>064-073>077-083>087-311900-
SOUTH CENTRAL NEBRASKA

CITY           SKY/WX    TMP DP  RH WIND       PRES   REMARKS
GRAND ISLAND   SUNNY     84  67  56 S13       29.94F
6HR MIN TEMP:  61; 6HR MAX TEMP:  84;

AURORA         SUNNY     82  69  65 S13G18    29.95F
HASTINGS       SUNNY     85  67  54 S13       29.94F
6HR MIN TEMP:  62; 6HR MAX TEMP:  85;

KEARNEY *      SUNNY     84  64  51 S14       29.94S
YORK           SUNNY     81  72  74 S10       29.95F
$$

NEZ011>018-030>034-042>045-311900-
NORTHEAST NEBRASKA

CITY           SKY/WX    TMP DP  RH WIND       PRES   REMARKS
NORFOLK        SUNNY     81  69  67 S15       29.92F
6HR MIN TEMP:  63; 6HR MAX TEMP:  81;

BLAIR          PTSUNNY   80  69  67 S10       29.96F
COLUMBUS *     SUNNY     81  66  61 S10G18    29.94F
FREMONT        MOSUNNY   82  68  63 S12G17    29.96S
TEKAMAH        MOSUNNY   81  70  69 S12G20    29.94F
6HR MIN TEMP:  61; 6HR MAX TEMP:  83;

$$

NEZ050>053-065>068-078-088>093-311900-
SOUTHEAST NEBRASKA

CITY           SKY/WX    TMP DP  RH WIND       PRES   REMARKS
LINCOLN        MOSUNNY   84  67  56 S13       29.95F
6HR MIN TEMP:  63; 6HR MAX TEMP:  84;

OMAHA EPPLEY   MOSUNNY   83  70  64 S12       29.95F
6HR MIN TEMP:  65; 6HR MAX TEMP:  83;

BEATRICE       SUNNY     83  67  59 S10G20    29.95F
FALLS CITY     MOSUNNY   86  67  52 S12       29.96F
6HR MIN TEMP:  64; 6HR MAX TEMP:  86;

NEBRASKA CITY  PTSUNNY   81  64  57 S10       29.97F
PLATTSMOUTH    MOSUNNY   81  68  64 S8        29.97F
$$

NEZ044-045-051>053-067-311900-
OMAHA AREA

CITY           SKY/WX    TMP DP  RH WIND       PRES   REMARKS
OMAHA EPPLEY   MOSUNNY   83  70  64 S12       29.95F
6HR MIN TEMP:  65; 6HR MAX TEMP:  83;

BLAIR          PTSUNNY   80  69  67 S10       29.96F
FREMONT        MOSUNNY   82  68  63 S12G17    29.96S
OFFUTT AFB     MOSUNNY   83  69  62 S8        29.95F
PLATTSMOUTH    MOSUNNY   81  68  64 S8        29.97F
WAHOO          FAIR      83  69  63 S12       29.95F
$$



USA.gov is the U.S. government's official web portal to all federal, state and local government web resources and services.